This demonstration page uses our WeatherBlox Daily Observations layout. Learn more.

Left ArrowRight Arrow

36.19886, -115.1175

Hourly Observations for December 5, 2018

Temp ( °F °C ) Dew Point ( °F °C ) Humidity (%) Winds ( mph kmh ) Pressure ( in mb ) Visibility ( mi km ) Precip ( " mm )
12:53 am 00:53 Clear 42 5.6 18 -7.8 38 38 SW 7 11 30.14 1021 10 16.0934 N/A
1:53 am 01:53 Clear 40 4.4 19 -7.2 43 43 SW 6 9 30.14 1021 10 16.0934 N/A
2:53 am 02:53 Clear 41 5 19 -7.2 41 41 SW 7 11 30.12 1020 10 16.0934 N/A
3:53 am 03:53 Clear 39 3.9 19 -7.2 45 45 N 9 15 30.12 1020 10 16.0934 N/A
4:53 am 04:53 Clear 42 5.6 20 -6.7 41 41 NNW 10 17 30.12 1020 10 16.0934 N/A
5:53 am 05:53 Clear 41 5 20 -6.7 43 43 N 3 6 30.13 1020 10 16.0934 N/A
6:53 am 06:53 Sunny 39 3.9 21 -6.1 48 48 SSE 6 9 30.12 1020 10 16.0934 N/A
7:53 am 07:53 Sunny 41 5 21 -6.1 45 45 SW 8 13 30.13 1020 10 16.0934 N/A
8:53 am 08:53 Sunny 44 6.7 21 -6.1 40 40 S 8 13 30.14 1021 10 16.0934 N/A
9:53 am 09:53 Sunny 45 7.2 21 -6.1 39 39 S 7 11 30.11 1020 10 16.0934 N/A
10:53 am 10:53 Cloudy 46 7.8 20 -6.7 35 35 S 5 7 30.1 1019 10 16.0934 N/A
11:53 am 11:53 Mostly Sunny 47 8.3 20 -6.7 34 34 N N/A 30.06 1018 10 16.0934 N/A
12:53 pm 12:53 Mostly Sunny 48 8.9 20 -6.7 33 33 E 3 6 30.04 1017 10 16.0934 N/A
1:53 pm 13:53 Cloudy 48 8.9 20 -6.7 33 33 N N/A 30.02 1017 10 16.0934 N/A
2:53 pm 14:53 Cloudy 49 9.4 20 -6.7 32 32 N N/A 30.02 1017 10 16.0934 N/A
3:53 pm 15:53 Cloudy 49 9.4 21 -6.1 33 33 NNW 5 7 30.01 1016 10 16.0934 N/A
4:53 pm 16:53 Cloudy 49 9.4 21 -6.1 33 33 W 3 6 30.02 1017 10 16.0934 N/A
5:53 pm 17:53 Cloudy 49 9.4 21 -6.1 33 33 WSW 3 6 30.02 1017 10 16.0934 N/A
6:53 pm 18:53 Cloudy 49 9.4 22 -5.6 35 35 W 3 6 30.03 1017 10 16.0934 N/A
7:53 pm 19:53 Cloudy with Light Rain 49 9.4 27 -2.8 43 43 N 3 6 30.03 1017 10 16.0934 N/A
8:53 pm 20:53 Cloudy 47 8.3 29 -1.7 50 50 SE 5 7 30.04 1017 10 16.0934 N/A
9:53 pm 21:53 Cloudy 47 8.3 31 -0.6 54 54 N N/A 30.04 1017 10 16.0934 N/A
10:53 pm 22:53 Cloudy 47 8.3 27 -2.8 46 46 N N/A 30.04 1017 10 16.0934 N/A
11:53 pm 23:53 Cloudy 47 8.3 29 -1.7 50 50 N N/A 30.04 1017 10 16.0934 N/A

Powered by AerisWeather